Time,TemperatureF,DewpointF,PressureIn,WindDirection,WindDirectionDegrees,WindSpeedMPH,WindSpeedGustMPH,Humidity,HourlyPrecipIn,Conditions,Clouds,dailyrainin,SoftwareType,DateUTC
2013-04-21 00:01:00,36.9,14.8,0.00,SSE,147,0.0,0.0,40,0.00,,---,0.00,VWS V14.01,2013-04-21 04:01:00,
2013-04-21 00:02:00,36.9,14.8,0.00,SSE,147,0.0,0.0,40,0.00,,---,0.00,VWS V14.01,2013-04-21 04:02:00,
2013-04-21 00:04:00,36.9,14.8,0.00,SSE,147,0.0,0.0,40,0.00,,---,0.00,VWS V14.01,2013-04-21 04:04:00,
2013-04-21 00:07:00,36.7,14.6,0.00,SSE,147,0.0,0.0,40,0.00,,---,0.00,VWS V14.01,2013-04-21 04:07:00,
2013-04-21 00:08:00,36.7,14.6,0.00,SSE,147,0.0,0.0,40,0.00,,---,0.00,VWS V14.01,2013-04-21 04:08:00,
2013-04-21 00:13:00,36.5,14.5,0.00,SSE,147,0.0,0.0,40,0.00,,---,0.00,VWS V14.01,2013-04-21 04:13:00,
2013-04-21 00:18:00,36.3,14.3,0.00,SSE,147,0.0,0.0,40,0.00,,---,0.00,VWS V14.01,2013-04-21 04:18:00,
2013-04-21 00:23:00,36.3,14.3,0.00,SSE,147,0.0,0.0,40,0.00,,---,0.00,VWS V14.01,2013-04-21 04:23:00,
2013-04-21 00:29:00,36.0,14.0,0.00,SSE,147,0.0,0.0,40,0.00,,---,0.00,VWS V14.01,2013-04-21 04:29:00,
2013-04-21 00:34:00,35.8,13.8,0.00,SSE,147,0.0,0.0,40,0.00,,---,0.00,VWS V14.01,2013-04-21 04:34:00,
2013-04-21 00:40:00,35.6,13.7,0.00,SSE,147,0.0,0.0,40,0.00,,---,0.00,VWS V14.01,2013-04-21 04:40:00,
2013-04-21 00:46:00,35.2,13.4,0.00,SSE,147,0.0,0.0,40,0.00,,---,0.00,VWS V14.01,2013-04-21 04:46:00,
2013-04-21 00:51:00,35.1,13.2,0.00,SSE,147,0.0,0.0,40,0.00,,---,0.00,VWS V14.01,2013-04-21 04:51:00,
2013-04-21 00:56:00,34.9,13.0,0.00,SSE,147,0.0,0.0,40,0.00,,---,0.00,VWS V14.01,2013-04-21 04:56:00,
2013-04-21 01:01:00,34.7,12.9,0.00,SSE,147,0.0,0.0,40,0.00,,---,0.00,VWS V14.01,2013-04-21 05:01:00,
2013-04-21 01:06:00,34.5,12.7,0.00,SSE,147,0.0,0.0,40,0.00,,---,0.00,VWS V14.01,2013-04-21 05:06:00,
2013-04-21 01:11:00,34.3,12.5,0.00,SSE,147,0.0,0.0,40,0.00,,---,0.00,VWS V14.01,2013-04-21 05:11:00,
2013-04-21 01:17:00,34.2,12.4,0.00,SSE,147,0.0,0.0,40,0.00,,---,0.00,VWS V14.01,2013-04-21 05:17:00,
2013-04-21 01:22:00,34.0,12.2,0.00,SSE,147,0.0,0.0,40,0.00,,---,0.00,VWS V14.01,2013-04-21 05:22:00,
2013-04-21 01:27:00,34.0,12.2,0.00,SSE,147,0.0,0.0,40,0.00,,---,0.00,VWS V14.01,2013-04-21 05:27:00,
2013-04-21 01:32:00,34.0,12.2,0.00,SSE,147,0.0,0.0,40,0.00,,---,0.00,VWS V14.01,2013-04-21 05:32:00,
2013-04-21 01:38:00,34.0,12.2,0.00,SSE,147,0.0,0.0,40,0.00,,---,0.00,VWS V14.01,2013-04-21 05:38:00,
2013-04-21 01:44:00,34.2,12.4,0.00,SSE,147,0.0,0.0,40,0.00,,---,0.00,VWS V14.01,2013-04-21 05:44:00,
2013-04-21 01:49:00,34.3,12.5,0.00,SSE,147,0.0,0.0,40,0.00,,---,0.00,VWS V14.01,2013-04-21 05:49:00,
2013-04-21 01:54:00,34.2,12.4,0.00,SSE,147,0.0,0.0,40,0.00,,---,0.00,VWS V14.01,2013-04-21 05:54:00,
2013-04-21 01:59:00,34.0,12.2,0.00,SSE,147,0.0,0.0,40,0.00,,---,0.00,VWS V14.01,2013-04-21 05:59:00,
2013-04-21 02:05:00,33.8,12.1,0.00,SSE,147,0.0,0.0,40,0.00,,---,0.00,VWS V14.01,2013-04-21 06:05:00,
2013-04-21 02:11:00,33.8,12.1,0.00,SSE,147,0.0,0.0,40,0.00,,---,0.00,VWS V14.01,2013-04-21 06:11:00,
2013-04-21 02:16:00,33.6,12.4,0.00,SSE,147,0.0,0.0,41,0.00,,---,0.00,VWS V14.01,2013-04-21 06:16:00,
2013-04-21 02:21:00,33.6,12.4,0.00,SSE,147,0.0,0.0,41,0.00,,---,0.00,VWS V14.01,2013-04-21 06:21:00,
2013-04-21 02:27:00,33.6,12.4,0.00,SSE,147,0.0,0.0,41,0.00,,---,0.00,VWS V14.01,2013-04-21 06:27:00,
2013-04-21 02:32:00,33.6,12.4,0.00,SSE,147,0.0,0.0,41,0.00,,---,0.00,VWS V14.01,2013-04-21 06:32:00,
2013-04-21 02:38:00,33.8,12.1,0.00,SSE,147,0.0,0.0,40,0.00,,---,0.00,VWS V14.01,2013-04-21 06:38:00,
2013-04-21 02:43:00,34.0,12.2,0.00,SSE,147,0.0,0.0,40,0.00,,---,0.00,VWS V14.01,2013-04-21 06:43:00,
2013-04-21 02:49:00,34.0,12.2,0.00,SSE,147,0.0,0.0,40,0.00,,---,0.00,VWS V14.01,2013-04-21 06:49:00,
2013-04-21 02:54:00,34.0,12.2,0.00,SSE,147,0.0,0.0,40,0.00,,---,0.00,VWS V14.01,2013-04-21 06:54:00,
2013-04-21 03:00:00,33.8,12.1,0.00,SSE,147,0.0,0.0,40,0.00,,---,0.00,VWS V14.01,2013-04-21 07:00:00,
2013-04-21 03:05:00,33.8,12.1,0.00,SSE,147,0.0,0.0,40,0.00,,---,0.00,VWS V14.01,2013-04-21 07:05:00,
2013-04-21 03:11:00,33.8,12.1,0.00,SSE,147,0.0,0.0,40,0.00,,---,0.00,VWS V14.01,2013-04-21 07:11:00,
2013-04-21 03:16:00,33.8,12.1,0.00,SSE,147,0.0,0.0,40,0.00,,---,0.00,VWS V14.01,2013-04-21 07:16:00,
2013-04-21 03:21:00,33.8,12.1,0.00,SSE,147,0.0,0.0,40,0.00,,---,0.00,VWS V14.01,2013-04-21 07:21:00,
2013-04-21 03:27:00,33.6,12.4,0.00,SSE,147,0.0,0.0,41,0.00,,---,0.00,VWS V14.01,2013-04-21 07:27:00,
2013-04-21 03:32:00,33.6,12.4,0.00,SSE,147,0.0,0.0,41,0.00,,---,0.00,VWS V14.01,2013-04-21 07:32:00,
2013-04-21 03:38:00,33.3,11.6,0.00,SSE,147,0.0,0.0,40,0.00,,---,0.00,VWS V14.01,2013-04-21 07:38:00,
2013-04-21 03:44:00,33.3,11.6,0.00,SSE,147,0.0,0.0,40,0.00,,---,0.00,VWS V14.01,2013-04-21 07:44:00,
2013-04-21 03:49:00,33.1,12.0,0.00,SSE,147,0.0,0.0,41,0.00,,---,0.00,VWS V14.01,2013-04-21 07:49:00,
2013-04-21 03:54:00,33.1,12.0,0.00,SSE,147,0.0,0.0,41,0.00,,---,0.00,VWS V14.01,2013-04-21 07:54:00,
2013-04-21 04:00:00,32.7,11.6,0.00,SSE,147,0.0,0.0,41,0.00,,---,0.00,VWS V14.01,2013-04-21 08:00:00,
2013-04-21 04:05:00,32.7,11.6,0.00,SSE,147,0.0,0.0,41,0.00,,---,0.00,VWS V14.01,2013-04-21 08:05:00,
2013-04-21 04:10:00,32.5,11.5,0.00,SSE,147,0.0,0.0,41,0.00,,---,0.00,VWS V14.01,2013-04-21 08:10:00,
2013-04-21 04:15:00,32.5,10.9,0.00,SSE,147,0.0,0.0,40,0.00,,---,0.00,VWS V14.01,2013-04-21 08:15:00,
2013-04-21 04:21:00,32.4,11.3,0.00,SSE,147,0.0,0.0,41,0.00,,---,0.00,VWS V14.01,2013-04-21 08:21:00,
2013-04-21 04:26:00,32.2,11.1,0.00,SSE,147,0.0,0.0,41,0.00,,---,0.00,VWS V14.01,2013-04-21 08:26:00,
2013-04-21 04:31:00,32.0,11.0,0.00,SSE,147,0.0,0.0,41,0.00,,---,0.00,VWS V14.01,2013-04-21 08:31:00,
2013-04-21 04:36:00,31.8,10.8,0.00,SSE,147,0.0,0.0,41,0.00,,---,0.00,VWS V14.01,2013-04-21 08:36:00,
2013-04-21 04:41:00,31.8,10.8,0.00,SSE,147,0.0,0.0,41,0.00,,---,0.00,VWS V14.01,2013-04-21 08:41:00,
2013-04-21 04:47:00,31.8,10.8,0.00,SSE,147,0.0,0.0,41,0.00,,---,0.00,VWS V14.01,2013-04-21 08:47:00,
2013-04-21 04:52:00,31.8,10.8,0.00,SSE,147,0.0,0.0,41,0.00,,---,0.00,VWS V14.01,2013-04-21 08:52:00,
2013-04-21 04:57:00,31.8,10.8,0.00,SSE,147,0.0,0.0,41,0.00,,---,0.00,VWS V14.01,2013-04-21 08:57:00,
2013-04-21 05:02:00,31.5,10.5,0.00,SSE,147,0.0,0.0,41,0.00,,---,0.00,VWS V14.01,2013-04-21 09:02:00,
2013-04-21 05:07:00,31.1,10.2,0.00,SSE,147,0.0,0.0,41,0.00,,---,0.00,VWS V14.01,2013-04-21 09:07:00,
2013-04-21 05:13:00,31.1,10.2,0.00,SSE,147,0.0,0.0,41,0.00,,---,0.00,VWS V14.01,2013-04-21 09:13:00,
2013-04-21 05:18:00,30.7,9.8,0.00,SSE,147,0.0,0.0,41,0.00,,---,0.00,VWS V14.01,2013-04-21 09:18:00,
2013-04-21 05:24:00,30.4,9.5,0.00,SSE,147,0.0,0.0,41,0.00,,---,0.00,VWS V14.01,2013-04-21 09:24:00,
2013-04-21 05:29:00,30.4,9.5,0.00,SSE,147,0.0,0.0,41,0.00,,---,0.00,VWS V14.01,2013-04-21 09:29:00,
2013-04-21 05:34:00,30.2,9.4,0.00,SSE,147,0.0,0.0,41,0.00,,---,0.00,VWS V14.01,2013-04-21 09:34:00,
2013-04-21 05:39:00,30.0,9.2,0.00,SSE,147,0.0,0.0,41,0.00,,---,0.00,VWS V14.01,2013-04-21 09:39:00,
2013-04-21 05:44:00,30.0,9.2,0.00,SSE,147,0.0,0.0,41,0.00,,---,0.00,VWS V14.01,2013-04-21 09:44:00,
2013-04-21 05:50:00,29.7,8.9,0.00,SSE,147,0.0,0.0,41,0.00,,---,0.00,VWS V14.01,2013-04-21 09:50:00,
2013-04-21 05:55:00,29.5,8.7,0.00,SSE,147,0.0,0.0,41,0.00,,---,0.00,VWS V14.01,2013-04-21 09:55:00,
2013-04-21 06:00:00,29.7,8.9,0.00,SSE,147,0.0,0.0,41,0.00,,---,0.00,VWS V14.01,2013-04-21 10:00:00,
2013-04-21 06:06:00,29.7,8.9,0.00,SSE,147,0.0,0.0,41,0.00,,---,0.00,VWS V14.01,2013-04-21 10:06:00,
2013-04-21 06:11:00,29.7,8.9,0.00,SSE,147,0.0,0.0,41,0.00,,---,0.00,VWS V14.01,2013-04-21 10:11:00,
2013-04-21 06:17:00,29.8,9.0,0.00,SSE,147,0.0,0.0,41,0.00,,---,0.00,VWS V14.01,2013-04-21 10:17:00,
2013-04-21 06:22:00,29.8,9.0,0.00,SSE,147,0.0,0.0,41,0.00,,---,0.00,VWS V14.01,2013-04-21 10:22:00,
2013-04-21 06:27:00,29.8,9.0,0.00,SSE,147,0.0,0.0,41,0.00,,---,0.00,VWS V14.01,2013-04-21 10:27:00,
2013-04-21 06:32:00,30.0,9.2,0.00,SSE,147,0.0,0.0,41,0.00,,---,0.00,VWS V14.01,2013-04-21 10:32:00,
2013-04-21 06:38:00,30.0,9.2,0.00,SSE,147,0.0,0.0,41,0.00,,---,0.00,VWS V14.01,2013-04-21 10:38:00,
2013-04-21 06:43:00,29.8,9.0,0.00,SSE,147,0.0,0.0,41,0.00,,---,0.00,VWS V14.01,2013-04-21 10:43:00,
2013-04-21 06:49:00,29.8,9.0,0.00,SSE,147,0.0,0.0,41,0.00,,---,0.00,VWS V14.01,2013-04-21 10:49:00,
2013-04-21 06:54:00,29.8,9.0,0.00,SSE,147,0.0,0.0,41,0.00,,---,0.00,VWS V14.01,2013-04-21 10:54:00,
2013-04-21 07:00:00,30.0,9.2,0.00,SSE,147,0.0,0.0,41,0.00,,---,0.00,VWS V14.01,2013-04-21 11:00:00,
2013-04-21 07:05:00,30.4,9.5,0.00,SSE,147,0.0,0.0,41,0.00,,---,0.00,VWS V14.01,2013-04-21 11:05:00,
2013-04-21 07:10:00,30.7,9.8,0.00,SSE,147,0.0,0.0,41,0.00,,---,0.00,VWS V14.01,2013-04-21 11:10:00,
2013-04-21 07:16:00,31.3,10.3,0.00,SSE,147,0.0,0.0,41,0.00,,---,0.00,VWS V14.01,2013-04-21 11:16:00,
2013-04-21 07:21:00,31.8,10.8,0.00,SSE,147,0.0,0.0,41,0.00,,---,0.00,VWS V14.01,2013-04-21 11:21:00,
2013-04-21 07:27:00,32.5,11.5,0.00,SSE,147,0.0,0.0,41,0.00,,---,0.00,VWS V14.01,2013-04-21 11:27:00,
2013-04-21 07:33:00,33.1,12.0,0.00,SSE,147,0.0,0.0,41,0.00,,---,0.00,VWS V14.01,2013-04-21 11:33:00,
2013-04-21 07:39:00,33.8,12.1,0.00,SSE,147,0.0,0.0,40,0.00,,---,0.00,VWS V14.01,2013-04-21 11:39:00,
2013-04-21 07:44:00,34.0,12.2,0.00,SSE,147,0.0,0.0,40,0.00,,---,0.00,VWS V14.01,2013-04-21 11:44:00,
2013-04-21 07:50:00,34.3,12.5,0.00,SSE,147,0.0,0.0,40,0.00,,---,0.00,VWS V14.01,2013-04-21 11:50:00,
2013-04-21 07:55:00,34.7,12.9,0.00,SSE,147,0.0,0.0,40,0.00,,---,0.00,VWS V14.01,2013-04-21 11:55:00,
2013-04-21 08:00:00,35.1,13.2,0.00,SSE,147,0.0,0.0,40,0.00,,---,0.00,VWS V14.01,2013-04-21 12:00:00,
2013-04-21 08:05:00,36.0,14.0,0.00,ENE,63,0.0,0.0,40,0.00,,---,0.00,VWS V14.01,2013-04-21 12:05:00,
2013-04-21 08:10:00,36.7,14.6,0.00,NNE,21,0.0,0.0,40,0.00,,---,0.00,VWS V14.01,2013-04-21 12:10:00,
2013-04-21 08:16:00,37.0,15.0,0.00,NNE,24,0.0,0.0,40,0.00,,---,0.00,VWS V14.01,2013-04-21 12:16:00,
2013-04-21 08:21:00,37.4,14.7,0.00,East,96,0.0,0.0,39,0.00,,---,0.00,VWS V14.01,2013-04-21 12:21:00,
2013-04-21 08:26:00,37.6,14.9,0.00,ESE,117,0.0,2.2,39,0.00,,---,0.00,VWS V14.01,2013-04-21 12:26:00,
2013-04-21 08:32:00,37.9,15.2,0.00,SSE,156,0.0,0.0,39,0.00,,---,0.00,VWS V14.01,2013-04-21 12:32:00,
2013-04-21 08:37:00,38.3,15.5,0.00,NE,46,0.0,0.0,39,0.00,,---,0.00,VWS V14.01,2013-04-21 12:37:00,
2013-04-21 08:42:00,38.7,15.9,0.00,NNE,20,0.0,0.0,39,0.00,,---,0.00,VWS V14.01,2013-04-21 12:42:00,
2013-04-21 08:48:00,38.8,16.0,0.00,ENE,73,0.0,0.0,39,0.00,,---,0.00,VWS V14.01,2013-04-21 12:48:00,
2013-04-21 08:53:00,39.0,16.2,0.00,NNE,31,0.0,0.0,39,0.00,,---,0.00,VWS V14.01,2013-04-21 12:53:00,
2013-04-21 08:59:00,39.4,16.5,0.00,NE,49,0.0,0.0,39,0.00,,---,0.00,VWS V14.01,2013-04-21 12:59:00,
2013-04-21 09:04:00,39.7,16.8,0.00,East,86,0.0,0.0,39,0.00,,---,0.00,VWS V14.01,2013-04-21 13:04:00,
2013-04-21 09:10:00,40.3,17.3,0.00,North,5,0.0,0.0,39,0.00,,---,0.00,VWS V14.01,2013-04-21 13:10:00,
2013-04-21 09:15:00,40.8,17.8,0.00,SSW,198,0.0,0.0,39,0.00,,---,0.00,VWS V14.01,2013-04-21 13:15:00,
2013-04-21 09:21:00,41.4,17.7,0.00,SW,234,0.0,0.0,38,0.00,,---,0.00,VWS V14.01,2013-04-21 13:21:00,
2013-04-21 09:27:00,42.1,18.3,0.00,SSW,200,0.0,0.0,38,0.00,,---,0.00,VWS V14.01,2013-04-21 13:27:00,
2013-04-21 09:33:00,42.6,18.8,0.00,North,6,0.0,3.1,38,0.00,,---,0.00,VWS V14.01,2013-04-21 13:33:00,
2013-04-21 09:38:00,42.8,19.0,0.00,South,175,0.0,2.7,38,0.00,,---,0.00,VWS V14.01,2013-04-21 13:38:00,
2013-04-21 09:44:00,43.5,19.6,0.00,SW,223,0.0,3.1,38,0.00,,---,0.00,VWS V14.01,2013-04-21 13:44:00,
2013-04-21 09:49:00,44.2,20.3,0.00,NE,49,0.0,0.0,38,0.00,,---,0.00,VWS V14.01,2013-04-21 13:49:00,
2013-04-21 09:55:00,44.2,20.3,0.00,NNE,15,0.0,0.0,38,0.00,,---,0.00,VWS V14.01,2013-04-21 13:55:00,
2013-04-21 10:00:00,44.1,20.1,0.00,NNE,25,0.0,4.0,38,0.00,,---,0.00,VWS V14.01,2013-04-21 14:00:00,
2013-04-21 10:05:00,44.6,20.6,0.00,North,8,0.0,2.2,38,0.00,,---,0.00,VWS V14.01,2013-04-21 14:05:00,
2013-04-21 10:11:00,45.3,21.2,0.00,SSE,166,0.0,0.0,38,0.00,,---,0.00,VWS V14.01,2013-04-21 14:11:00,
2013-04-21 10:16:00,46.4,21.6,0.00,WNW,282,0.0,0.0,37,0.00,,---,0.00,VWS V14.01,2013-04-21 14:16:00,
2013-04-21 10:21:00,47.3,22.4,0.00,North,357,0.0,0.0,37,0.00,,---,0.00,VWS V14.01,2013-04-21 14:21:00,
2013-04-21 10:26:00,47.7,22.7,0.00,South,182,0.0,0.0,37,0.00,,---,0.00,VWS V14.01,2013-04-21 14:26:00,
2013-04-21 10:32:00,47.7,22.7,0.00,NNW,345,2.2,2.2,37,0.00,,---,0.00,VWS V14.01,2013-04-21 14:32:00,
2013-04-21 10:37:00,48.2,23.2,0.00,NNE,29,0.0,2.2,37,0.00,,---,0.00,VWS V14.01,2013-04-21 14:37:00,
2013-04-21 10:42:00,48.9,23.8,0.00,SE,137,0.0,0.0,37,0.00,,---,0.00,VWS V14.01,2013-04-21 14:42:00,
2013-04-21 10:47:00,49.8,24.6,0.00,NNW,329,0.0,2.2,37,0.00,,---,0.00,VWS V14.01,2013-04-21 14:47:00,
2013-04-21 10:52:00,50.4,24.4,0.00,SW,232,0.0,0.0,36,0.00,,---,0.00,VWS V14.01,2013-04-21 14:52:00,
2013-04-21 10:57:00,50.9,24.9,0.00,WSW,253,0.0,0.0,36,0.00,,---,0.00,VWS V14.01,2013-04-21 14:57:00,
2013-04-21 11:02:00,50.9,24.9,0.00,NW,313,0.0,0.0,36,0.00,,---,0.00,VWS V14.01,2013-04-21 15:02:00,
2013-04-21 11:07:00,51.3,25.2,0.00,SSE,165,0.0,0.0,36,0.00,,---,0.00,VWS V14.01,2013-04-21 15:07:00,
2013-04-21 11:12:00,51.1,25.1,0.00,NNW,340,0.0,3.1,36,0.00,,---,0.00,VWS V14.01,2013-04-21 15:12:00,
2013-04-21 11:17:00,50.2,24.3,0.00,North,0,0.0,0.0,36,0.00,,---,0.00,VWS V14.01,2013-04-21 15:17:00,
2013-04-21 11:23:00,49.5,24.3,0.00,SSE,153,0.0,0.0,37,0.00,,---,0.00,VWS V14.01,2013-04-21 15:23:00,
2013-04-21 11:28:00,51.3,25.2,0.00,NNE,21,0.0,0.0,36,0.00,,---,0.00,VWS V14.01,2013-04-21 15:28:00,
2013-04-21 11:34:00,52.3,26.2,0.00,North,0,2.2,2.7,36,0.00,,---,0.00,VWS V14.01,2013-04-21 15:34:00,
2013-04-21 11:39:00,51.4,25.4,0.00,SE,130,0.0,0.0,36,0.00,,---,0.00,VWS V14.01,2013-04-21 15:39:00,
2013-04-21 11:44:00,51.1,25.1,0.00,SSE,166,4.0,5.4,36,0.00,,---,0.00,VWS V14.01,2013-04-21 15:44:00,
2013-04-21 11:49:00,51.4,25.4,0.00,North,11,0.0,2.2,36,0.00,,---,0.00,VWS V14.01,2013-04-21 15:49:00,
2013-04-21 11:55:00,52.2,26.0,0.00,NW,322,0.0,0.0,36,0.00,,---,0.00,VWS V14.01,2013-04-21 15:55:00,
2013-04-21 12:00:00,52.0,25.9,0.00,NW,304,0.0,2.2,36,0.00,,---,0.00,VWS V14.01,2013-04-21 16:00:00,
2013-04-21 12:06:00,51.6,25.6,0.00,North,5,0.0,0.0,36,0.00,,---,0.00,VWS V14.01,2013-04-21 16:06:00,
2013-04-21 12:11:00,51.3,25.2,0.00,NNW,343,0.0,0.0,36,0.00,,---,0.00,VWS V14.01,2013-04-21 16:11:00,
2013-04-21 12:17:00,51.1,25.1,0.00,NNW,340,0.0,0.0,36,0.00,,---,0.00,VWS V14.01,2013-04-21 16:17:00,
2013-04-21 12:22:00,51.4,25.4,0.00,NNW,341,0.0,2.2,36,0.00,,---,0.00,VWS V14.01,2013-04-21 16:22:00,
2013-04-21 12:27:00,51.4,25.4,0.00,North,353,0.0,0.0,36,0.00,,---,0.00,VWS V14.01,2013-04-21 16:27:00,
2013-04-21 12:32:00,51.6,25.6,0.00,NNE,20,0.0,0.0,36,0.00,,---,0.00,VWS V14.01,2013-04-21 16:32:00,
2013-04-21 12:37:00,51.8,25.7,0.00,SE,131,0.0,0.0,36,0.00,,---,0.00,VWS V14.01,2013-04-21 16:37:00,
2013-04-21 12:43:00,51.1,25.1,0.00,South,175,0.0,0.0,36,0.00,,---,0.00,VWS V14.01,2013-04-21 16:43:00,
2013-04-21 12:48:00,50.9,24.9,0.00,West,273,0.0,0.0,36,0.00,,---,0.00,VWS V14.01,2013-04-21 16:48:00,
2013-04-21 12:53:00,50.9,24.9,0.00,South,179,0.0,0.0,36,0.00,,---,0.00,VWS V14.01,2013-04-21 16:53:00,
2013-04-21 12:58:00,51.6,25.6,0.00,NNW,335,0.0,0.0,36,0.00,,---,0.00,VWS V14.01,2013-04-21 16:58:00,
2013-04-21 13:04:00,51.1,25.1,0.00,NNW,335,0.0,2.2,36,0.00,,---,0.00,VWS V14.01,2013-04-21 17:04:00,
2013-04-21 13:10:00,51.4,25.4,0.00,WSW,255,0.0,0.0,36,0.00,,---,0.00,VWS V14.01,2013-04-21 17:10:00,
2013-04-21 13:15:00,51.4,25.4,0.00,WSW,253,0.0,0.0,36,0.00,,---,0.00,VWS V14.01,2013-04-21 17:15:00,
2013-04-21 13:21:00,51.1,25.1,0.00,East,89,0.0,0.0,36,0.00,,---,0.00,VWS V14.01,2013-04-21 17:21:00,
2013-04-21 13:27:00,50.9,24.9,0.00,WNW,283,0.0,0.0,36,0.00,,---,0.00,VWS V14.01,2013-04-21 17:27:00,
2013-04-21 13:32:00,51.1,25.1,0.00,South,186,0.0,0.0,36,0.00,,---,0.00,VWS V14.01,2013-04-21 17:32:00,
2013-04-21 13:37:00,51.3,25.2,0.00,NNE,21,2.7,2.7,36,0.00,,---,0.00,VWS V14.01,2013-04-21 17:37:00,
2013-04-21 13:43:00,51.6,25.6,0.00,NNW,336,0.0,0.0,36,0.00,,---,0.00,VWS V14.01,2013-04-21 17:43:00,
2013-04-21 13:48:00,51.4,25.4,0.00,SSW,194,0.0,0.0,36,0.00,,---,0.00,VWS V14.01,2013-04-21 17:48:00,
2013-04-21 13:54:00,51.6,25.6,0.00,NNW,328,0.0,0.0,36,0.00,,---,0.00,VWS V14.01,2013-04-21 17:54:00,
2013-04-21 13:59:00,51.6,25.6,0.00,WNW,298,0.0,0.0,36,0.00,,---,0.00,VWS V14.01,2013-04-21 17:59:00,
2013-04-21 14:04:00,51.1,25.1,0.00,NNW,339,0.0,0.0,36,0.00,,---,0.00,VWS V14.01,2013-04-21 18:04:00,
2013-04-21 14:09:00,50.9,24.9,0.00,NNE,24,0.0,0.0,36,0.00,,---,0.00,VWS V14.01,2013-04-21 18:09:00,
2013-04-21 14:15:00,51.3,25.2,0.00,SSW,196,0.0,0.0,36,0.00,,---,0.00,VWS V14.01,2013-04-21 18:15:00,
2013-04-21 14:20:00,51.1,25.1,0.00,WSW,242,0.0,0.0,36,0.00,,---,0.00,VWS V14.01,2013-04-21 18:20:00,
2013-04-21 14:26:00,51.1,25.1,0.00,SSE,163,0.0,3.1,36,0.00,,---,0.00,VWS V14.01,2013-04-21 18:26:00,
2013-04-21 14:31:00,51.3,25.2,0.00,NE,42,0.0,0.0,36,0.00,,---,0.00,VWS V14.01,2013-04-21 18:31:00,
2013-04-21 14:37:00,51.4,25.4,0.00,WNW,286,0.0,0.0,36,0.00,,---,0.00,VWS V14.01,2013-04-21 18:37:00,
2013-04-21 14:42:00,51.6,25.6,0.00,NW,326,0.0,2.7,36,0.00,,---,0.00,VWS V14.01,2013-04-21 18:42:00,
2013-04-21 14:47:00,51.8,25.7,0.00,NNW,342,0.0,3.6,36,0.00,,---,0.00,VWS V14.01,2013-04-21 18:47:00,
2013-04-21 14:53:00,52.0,25.9,0.00,North,353,0.0,0.0,36,0.00,,---,0.00,VWS V14.01,2013-04-21 18:53:00,
2013-04-21 14:58:00,52.2,26.0,0.00,South,174,0.0,0.0,36,0.00,,---,0.00,VWS V14.01,2013-04-21 18:58:00,
2013-04-21 15:04:00,52.5,26.4,0.00,SSW,207,0.0,0.0,36,0.00,,---,0.00,VWS V14.01,2013-04-21 19:04:00,
2013-04-21 15:09:00,52.9,26.7,0.00,NNW,331,0.0,0.0,36,0.00,,---,0.00,VWS V14.01,2013-04-21 19:09:00,
2013-04-21 15:14:00,52.3,26.2,0.00,North,0,0.0,0.0,36,0.00,,---,0.00,VWS V14.01,2013-04-21 19:14:00,
2013-04-21 15:19:00,52.5,26.4,0.00,NNE,23,0.0,0.0,36,0.00,,---,0.00,VWS V14.01,2013-04-21 19:19:00,
2013-04-21 15:25:00,52.5,26.4,0.00,ESE,119,0.0,0.0,36,0.00,,---,0.00,VWS V14.01,2013-04-21 19:25:00,
2013-04-21 15:31:00,53.1,26.8,0.00,West,271,0.0,0.0,36,0.00,,---,0.00,VWS V14.01,2013-04-21 19:31:00,
2013-04-21 15:36:00,53.1,26.8,0.00,NE,50,0.0,0.0,36,0.00,,---,0.00,VWS V14.01,2013-04-21 19:36:00,
2013-04-21 15:42:00,53.1,26.8,0.00,North,7,0.0,0.0,36,0.00,,---,0.00,VWS V14.01,2013-04-21 19:42:00,
2013-04-21 15:47:00,52.9,26.7,0.00,NW,311,0.0,0.0,36,0.00,,---,0.00,VWS V14.01,2013-04-21 19:47:00,
2013-04-21 15:52:00,52.7,26.5,0.00,West,272,0.0,0.0,36,0.00,,---,0.00,VWS V14.01,2013-04-21 19:52:00,
2013-04-21 15:58:00,52.9,26.7,0.00,NNW,332,0.0,0.0,36,0.00,,---,0.00,VWS V14.01,2013-04-21 19:58:00,
2013-04-21 16:04:00,53.1,26.8,0.00,North,353,0.0,0.0,36,0.00,,---,0.00,VWS V14.01,2013-04-21 20:04:00,
2013-04-21 16:09:00,53.1,26.8,0.00,ENE,62,0.0,0.0,36,0.00,,---,0.00,VWS V14.01,2013-04-21 20:09:00,
2013-04-21 16:15:00,53.1,26.8,0.00,NNE,17,0.0,0.0,36,0.00,,---,0.00,VWS V14.01,2013-04-21 20:15:00,
2013-04-21 16:20:00,53.2,27.0,0.00,NNE,14,0.0,0.0,36,0.00,,---,0.00,VWS V14.01,2013-04-21 20:20:00,
2013-04-21 16:25:00,53.4,27.1,0.00,South,173,2.7,2.7,36,0.00,,---,0.00,VWS V14.01,2013-04-21 20:25:00,
2013-04-21 16:31:00,53.1,26.8,0.00,NNE,13,0.0,0.0,36,0.00,,---,0.00,VWS V14.01,2013-04-21 20:31:00,
2013-04-21 16:37:00,53.2,27.0,0.00,NE,46,0.0,0.0,36,0.00,,---,0.00,VWS V14.01,2013-04-21 20:37:00,
2013-04-21 16:42:00,53.6,27.3,0.00,NNW,348,2.2,2.2,36,0.00,,---,0.00,VWS V14.01,2013-04-21 20:42:00,
2013-04-21 16:47:00,53.6,27.3,0.00,NNW,348,0.0,2.2,36,0.00,,---,0.00,VWS V14.01,2013-04-21 20:47:00,
2013-04-21 16:53:00,53.6,27.3,0.00,NNW,348,0.0,0.0,36,0.00,,---,0.00,VWS V14.01,2013-04-21 20:53:00,
2013-04-21 16:58:00,54.5,28.1,0.00,South,178,0.0,0.0,36,0.00,,---,0.00,VWS V14.01,2013-04-21 20:58:00,
2013-04-21 17:04:00,54.3,28.0,0.00,NE,41,0.0,0.0,36,0.00,,---,0.00,VWS V14.01,2013-04-21 21:04:00,
2013-04-21 17:09:00,54.3,28.0,0.00,North,2,0.0,0.0,36,0.00,,---,0.00,VWS V14.01,2013-04-21 21:09:00,
2013-04-21 17:14:00,54.5,28.1,0.00,North,353,0.0,0.0,36,0.00,,---,0.00,VWS V14.01,2013-04-21 21:14:00,
2013-04-21 17:20:00,54.9,28.4,0.00,SSE,162,0.0,2.2,36,0.00,,---,0.00,VWS V14.01,2013-04-21 21:20:00,
2013-04-21 17:25:00,54.5,28.1,0.00,South,170,0.0,0.0,36,0.00,,---,0.00,VWS V14.01,2013-04-21 21:25:00,
2013-04-21 17:31:00,54.5,28.1,0.00,SSE,158,0.0,0.0,36,0.00,,---,0.00,VWS V14.01,2013-04-21 21:31:00,
2013-04-21 17:37:00,54.7,28.3,0.00,North,0,0.0,0.0,36,0.00,,---,0.00,VWS V14.01,2013-04-21 21:37:00,
2013-04-21 17:43:00,54.5,28.1,0.00,NNE,15,0.0,0.0,36,0.00,,---,0.00,VWS V14.01,2013-04-21 21:43:00,
2013-04-21 17:48:00,54.3,28.0,0.00,South,173,0.0,0.0,36,0.00,,---,0.00,VWS V14.01,2013-04-21 21:48:00,
2013-04-21 17:54:00,54.1,27.8,0.00,South,177,0.0,2.7,36,0.00,,---,0.00,VWS V14.01,2013-04-21 21:54:00,
2013-04-21 18:00:00,54.0,27.6,0.00,South,189,0.0,0.0,36,0.00,,---,0.00,VWS V14.01,2013-04-21 22:00:00,
2013-04-21 18:05:00,54.0,27.6,0.00,South,179,0.0,0.0,36,0.00,,---,0.00,VWS V14.01,2013-04-21 22:05:00,
2013-04-21 18:11:00,53.1,26.8,0.00,North,0,0.0,0.0,36,0.00,,---,0.00,VWS V14.01,2013-04-21 22:11:00,
2013-04-21 18:16:00,52.5,26.4,0.00,North,0,0.0,0.0,36,0.00,,---,0.00,VWS V14.01,2013-04-21 22:16:00,
2013-04-21 18:21:00,52.0,25.9,0.00,NNW,340,0.0,0.0,36,0.00,,---,0.00,VWS V14.01,2013-04-21 22:21:00,
2013-04-21 18:27:00,52.0,25.9,0.00,SSW,212,0.0,0.0,36,0.00,,---,0.00,VWS V14.01,2013-04-21 22:27:00,
2013-04-21 18:32:00,51.8,25.7,0.00,SSW,195,0.0,0.0,36,0.00,,---,0.00,VWS V14.01,2013-04-21 22:32:00,
2013-04-21 18:37:00,51.8,25.7,0.00,SSE,166,0.0,0.0,36,0.00,,---,0.00,VWS V14.01,2013-04-21 22:37:00,
2013-04-21 18:43:00,51.4,25.4,0.00,NNE,27,0.0,0.0,36,0.00,,---,0.00,VWS V14.01,2013-04-21 22:43:00,
2013-04-21 18:48:00,51.4,25.4,0.00,South,175,0.0,0.0,36,0.00,,---,0.00,VWS V14.01,2013-04-21 22:48:00,
2013-04-21 18:53:00,51.6,25.6,0.00,South,172,0.0,0.0,36,0.00,,---,0.00,VWS V14.01,2013-04-21 22:53:00,
2013-04-21 18:58:00,52.0,25.9,0.00,SW,228,0.0,0.0,36,0.00,,---,0.00,VWS V14.01,2013-04-21 22:58:00,
2013-04-21 19:04:00,51.8,25.7,0.00,South,184,0.0,2.7,36,0.00,,---,0.00,VWS V14.01,2013-04-21 23:04:00,
2013-04-21 19:09:00,51.1,25.1,0.00,South,187,0.0,0.0,36,0.00,,---,0.00,VWS V14.01,2013-04-21 23:09:00,
2013-04-21 19:14:00,50.4,24.4,0.00,South,178,0.0,3.6,36,0.00,,---,0.00,VWS V14.01,2013-04-21 23:14:00,
2013-04-21 19:19:00,49.6,24.5,0.00,South,175,0.0,0.0,37,0.00,,---,0.00,VWS V14.01,2013-04-21 23:19:00,
2013-04-21 19:24:00,49.1,24.0,0.00,SSW,193,0.0,0.0,37,0.00,,---,0.00,VWS V14.01,2013-04-21 23:24:00,
2013-04-21 19:30:00,48.6,23.5,0.00,SSW,193,0.0,0.0,37,0.00,,---,0.00,VWS V14.01,2013-04-21 23:30:00,
2013-04-21 19:35:00,47.8,22.9,0.00,SSW,193,0.0,0.0,37,0.00,,---,0.00,VWS V14.01,2013-04-21 23:35:00,
2013-04-21 19:41:00,47.1,22.2,0.00,SSW,193,0.0,0.0,37,0.00,,---,0.00,VWS V14.01,2013-04-21 23:41:00,
2013-04-21 19:46:00,46.6,21.7,0.00,SSW,194,0.0,0.0,37,0.00,,---,0.00,VWS V14.01,2013-04-21 23:46:00,
2013-04-21 19:51:00,46.0,21.9,0.00,SSW,194,0.0,0.0,38,0.00,,---,0.00,VWS V14.01,2013-04-21 23:51:00,
2013-04-21 19:56:00,45.9,21.7,0.00,SSW,194,0.0,0.0,38,0.00,,---,0.00,VWS V14.01,2013-04-21 23:56:00,
2013-04-21 20:01:00,45.7,21.5,0.00,SSW,194,0.0,0.0,38,0.00,,---,0.00,VWS V14.01,2013-04-22 00:01:00,
2013-04-21 20:06:00,45.3,21.2,0.00,SSW,194,0.0,0.0,38,0.00,,---,0.00,VWS V14.01,2013-04-22 00:06:00,
2013-04-21 20:12:00,44.8,20.7,0.00,SSW,194,0.0,0.0,38,0.00,,---,0.00,VWS V14.01,2013-04-22 00:12:00,
2013-04-21 20:18:00,44.1,20.1,0.00,SSW,194,0.0,0.0,38,0.00,,---,0.00,VWS V14.01,2013-04-22 00:18:00,
2013-04-21 20:24:00,43.5,19.6,0.00,SSW,194,0.0,0.0,38,0.00,,---,0.00,VWS V14.01,2013-04-22 00:24:00,
2013-04-21 20:30:00,42.8,19.0,0.00,SSW,194,0.0,0.0,38,0.00,,---,0.00,VWS V14.01,2013-04-22 00:30:00,
2013-04-21 20:35:00,42.6,18.8,0.00,SSW,194,0.0,0.0,38,0.00,,---,0.00,VWS V14.01,2013-04-22 00:35:00,
2013-04-21 20:40:00,42.1,18.3,0.00,SSW,194,0.0,0.0,38,0.00,,---,0.00,VWS V14.01,2013-04-22 00:40:00,
2013-04-21 20:45:00,41.7,18.0,0.00,SSW,194,0.0,0.0,38,0.00,,---,0.00,VWS V14.01,2013-04-22 00:45:00,
2013-04-21 20:50:00,41.5,17.8,0.00,SSW,194,0.0,0.0,38,0.00,,---,0.00,VWS V14.01,2013-04-22 00:50:00,
2013-04-21 20:55:00,41.2,17.5,0.00,SSW,194,0.0,0.0,38,0.00,,---,0.00,VWS V14.01,2013-04-22 00:55:00,
2013-04-21 21:00:00,41.0,17.4,0.00,SSW,194,0.0,0.0,38,0.00,,---,0.00,VWS V14.01,2013-04-22 01:00:00,
2013-04-21 21:05:00,40.8,17.8,0.00,SSW,194,0.0,0.0,39,0.00,,---,0.00,VWS V14.01,2013-04-22 01:05:00,
2013-04-21 21:10:00,40.6,17.6,0.00,SSW,194,0.0,0.0,39,0.00,,---,0.00,VWS V14.01,2013-04-22 01:10:00,
2013-04-21 21:15:00,40.5,17.5,0.00,SSW,194,0.0,0.0,39,0.00,,---,0.00,VWS V14.01,2013-04-22 01:15:00,
2013-04-21 21:21:00,40.3,17.3,0.00,SSW,194,0.0,0.0,39,0.00,,---,0.00,VWS V14.01,2013-04-22 01:21:00,
2013-04-21 21:26:00,39.9,17.0,0.00,SSW,194,0.0,0.0,39,0.00,,---,0.00,VWS V14.01,2013-04-22 01:26:00,
2013-04-21 21:31:00,39.7,16.8,0.00,SSW,194,0.0,0.0,39,0.00,,---,0.00,VWS V14.01,2013-04-22 01:31:00,
2013-04-21 21:36:00,39.6,16.7,0.00,SSW,194,0.0,0.0,39,0.00,,---,0.00,VWS V14.01,2013-04-22 01:36:00,
2013-04-21 21:42:00,39.4,16.5,0.00,SSW,194,0.0,0.0,39,0.00,,---,0.00,VWS V14.01,2013-04-22 01:42:00,
2013-04-21 21:47:00,39.2,16.3,0.00,SSW,194,0.0,0.0,39,0.00,,---,0.00,VWS V14.01,2013-04-22 01:47:00,
2013-04-21 21:52:00,39.2,16.3,0.00,SSW,194,0.0,0.0,39,0.00,,---,0.00,VWS V14.01,2013-04-22 01:52:00,
2013-04-21 21:58:00,39.2,16.3,0.00,SSW,194,0.0,0.0,39,0.00,,---,0.00,VWS V14.01,2013-04-22 01:58:00,
2013-04-21 22:04:00,39.0,16.2,0.00,SSW,194,0.0,0.0,39,0.00,,---,0.00,VWS V14.01,2013-04-22 02:04:00,
2013-04-21 22:10:00,38.8,16.0,0.00,SSW,194,0.0,0.0,39,0.00,,---,0.00,VWS V14.01,2013-04-22 02:10:00,
2013-04-21 22:16:00,38.7,15.9,0.00,SSW,194,0.0,0.0,39,0.00,,---,0.00,VWS V14.01,2013-04-22 02:16:00,
2013-04-21 22:22:00,38.5,15.7,0.00,SSW,194,0.0,0.0,39,0.00,,---,0.00,VWS V14.01,2013-04-22 02:22:00,
2013-04-21 22:27:00,38.5,15.7,0.00,SSW,194,0.0,0.0,39,0.00,,---,0.00,VWS V14.01,2013-04-22 02:27:00,
2013-04-21 22:32:00,38.3,15.5,0.00,SSW,194,0.0,0.0,39,0.00,,---,0.00,VWS V14.01,2013-04-22 02:32:00,
2013-04-21 22:38:00,38.3,15.5,0.00,SSW,194,0.0,0.0,39,0.00,,---,0.00,VWS V14.01,2013-04-22 02:38:00,
2013-04-21 22:43:00,38.1,15.4,0.00,SSW,194,0.0,0.0,39,0.00,,---,0.00,VWS V14.01,2013-04-22 02:43:00,
2013-04-21 22:49:00,38.1,15.4,0.00,SSW,194,0.0,0.0,39,0.00,,---,0.00,VWS V14.01,2013-04-22 02:49:00,
2013-04-21 22:55:00,38.3,15.5,0.00,SSW,194,0.0,0.0,39,0.00,,---,0.00,VWS V14.01,2013-04-22 02:55:00,
2013-04-21 23:00:00,38.3,15.5,0.00,SSW,194,0.0,0.0,39,0.00,,---,0.00,VWS V14.01,2013-04-22 03:00:00,
2013-04-21 23:06:00,38.5,15.7,0.00,SSW,194,0.0,0.0,39,0.00,,---,0.00,VWS V14.01,2013-04-22 03:06:00,
2013-04-21 23:11:00,38.5,15.7,0.00,SSW,194,0.0,0.0,39,0.00,,---,0.00,VWS V14.01,2013-04-22 03:11:00,
2013-04-21 23:17:00,38.7,15.9,0.00,SSW,194,0.0,0.0,39,0.00,,---,0.00,VWS V14.01,2013-04-22 03:17:00,
2013-04-21 23:23:00,38.7,15.9,0.00,SSW,194,0.0,0.0,39,0.00,,---,0.00,VWS V14.01,2013-04-22 03:23:00,
2013-04-21 23:28:00,38.5,15.7,0.00,SSW,194,0.0,0.0,39,0.00,,---,0.00,VWS V14.01,2013-04-22 03:28:00,
2013-04-21 23:33:00,38.5,15.7,0.00,SSW,194,0.0,0.0,39,0.00,,---,0.00,VWS V14.01,2013-04-22 03:33:00,
2013-04-21 23:38:00,38.3,15.5,0.00,SSW,194,0.0,0.0,39,0.00,,---,0.00,VWS V14.01,2013-04-22 03:38:00,
2013-04-21 23:44:00,38.3,15.5,0.00,SSW,194,0.0,0.0,39,0.00,,---,0.00,VWS V14.01,2013-04-22 03:44:00,
2013-04-21 23:49:00,38.1,15.4,0.00,SSW,194,0.0,0.0,39,0.00,,---,0.00,VWS V14.01,2013-04-22 03:49:00,
2013-04-21 23:54:00,37.9,15.2,0.00,SSW,194,0.0,0.0,39,0.00,,---,0.00,VWS V14.01,2013-04-22 03:54:00,